Погода в Кызыл-Покуне

Россия / Карачаево-Черкесская Республика     43°55′52″N   42°19′20″E
темп.,
°C
ветер,
м/с
пор.,
м/с
влажн.,
%
обл.,
%
осадки,
мм/ч
давл.,
гПа
погр.,
м
14 апреля, ср
ср1400:00+4зюз1296100 3.5 1020378
03:00+4з238488 3.5 1018102
06:00+4з3691100 0.0 1018319
09:00+6сз3378100 0.0 1018673
12:00+9сз4468100 0.0 10161018
15:00+9сз4467100 0.3 10161143
18:00+6с118699 0.1 1018353
21:00+6вюв118563 0.1 101843
15 апреля, чт
чт1500:00+4ююз228785 0.0 101812
03:00+4ю22797 0.0 101811
06:00+4ююв22664 0.0 101812
09:00+10св22515 0.0 1017609
12:00+13св43455 0.0 10161568
15:00+13св534769 0.1 10151490
18:00+11всв3557100 0.1 1017239
21:00+8вюв2367100 0.1 101878
16 апреля, пт
пт1600:00+7ююв1173100 0.0 101711
03:00+6ююз1175100 0.0 101710
06:00+6ююв227057 0.0 101812
09:00+12св33545 0.0 1016836
12:00+15всв544543 0.1 10141874
15:00+14всв335254 0.9 10141040
18:00+8зсз7996100 2.4 1018506
21:00+7з0191100 3.5 1020336
17 апреля, сб
сб1700:00+6ююз0097100 0.0 101913
03:00+6ссв1198100 0.0 1019115
06:00+4ссз4699100 2.4 1023689
09:00+4ссв2195100 2.6 1022549
12:00+5ссв2294100 0.2 1024509
15:00+5всв2390100 0.3 1024539
18:00+6в2488100 0.1 1023477
21:00+4юв2292100 0.1 102221
18 апреля, вс
вс1800:00+5юв2288100 0.0 102131
03:00+5юв2286100 0.0 102127
06:00+7ю2284100 0.4 102123
09:00+11в12659 0.6 1018675
12:00+15ссв335783 0.0 10171263
15:00+13св3270100 0.1 1017801
18:00+11всв238029 0.8 1018393
21:00+8ююв22910 1.1 101923